This demonstration page uses our WeatherBlox Daily Observations layout. Learn more.

Left ArrowRight Arrow

44.8408, -93.29828

Hourly Observations for July 30, 2016

Temp ( °F °C ) Dew Point ( °F °C ) Humidity (%) Winds ( mph kmh ) Pressure ( in mb ) Visibility ( mi km ) Precip ( " mm )
12:53 am 00:53 Cloudy 71 21.7 57 13.9 61 61 Calm 30.02 1017 10 16 0.00 0.00
1:53 am 01:53 Cloudy 71 21.7 57 13.9 61 61 NNE 5 7 30.01 1016 10 16 0.00 0.00
2:53 am 02:53 Mostly Cloudy 69 20.6 58 14.4 68 68 NNE 5 7 30.00 1016 10 16 0.00 0.00
3:53 am 03:53 Mostly Cloudy 69 20.6 58 14.4 68 68 N 3 6 30.01 1016 10 16 0.00 0.00
4:53 am 04:53 Cloudy 69 20.6 58 14.4 68 68 ENE 3 6 30.01 1016 10 16 0.00 0.00
5:53 am 05:53 Mostly Cloudy 68 20 58 14.4 70 70 E 5 7 30.01 1016 10 16 0.00 0.00
6:53 am 06:53 Mostly Cloudy 67 19.4 60 15.6 79 79 SE 6 9 30.02 1017 10 16 0.00 0.00
7:53 am 07:53 Cloudy 69 20.6 61 16.1 76 76 SE 5 7 30.03 1017 10 16 0.00 0.00
8:53 am 08:53 Cloudy 69 20.6 62 16.7 78 78 ESE 7 11 30.02 1017 10 16 0.00 0.00
9:53 am 09:53 Cloudy 71 21.7 63 17.2 76 76 SE 6 9 30.03 1017 10 16 0.00 0.00
10:53 am 10:53 Cloudy 72 22.2 64 17.8 76 76 S 3 6 30.04 1017 10 16 0.00 0.00
11:53 am 11:53 Cloudy 74 23.3 64 17.8 71 71 SSE 5 7 30.03 1017 10 16 0.00 0.00
12:53 pm 12:53 Partly Cloudy 78 25.6 63 17.2 60 60 ESE 5 7 30.01 1016 10 16 0.00 0.00
1:53 pm 13:53 Partly Cloudy 79 26.1 62 16.7 56 56 SE 12 19 29.99 1016 10 16 0.00 0.00
2:53 pm 14:53 Mostly Cloudy 79 26.1 62 16.7 56 56 SSE 6 9 29.99 1016 10 16 0.00 0.00
3:53 pm 15:53 Mostly Cloudy 80 26.7 62 16.7 54 54 SSE 10 17 29.98 1015 10 16 0.00 0.00
4:53 pm 16:53 Mostly Cloudy 80 26.7 62 16.7 54 54 SSE 10 17 29.97 1015 10 16 0.00 0.00
5:53 pm 17:53 Mostly Cloudy with Light Rain 75 23.9 67 19.4 76 76 SSW 7 11 29.97 1015 10 16 0.00 0.03
6:53 pm 18:53 Mostly Cloudy 77 25 62 16.7 60 60 SSE 10 17 29.96 1015 10 16 0.00 0.03
7:53 pm 19:53 Partly Cloudy 77 25 63 17.2 62 62 SE 6 9 29.97 1015 10 16 0.00 0.00
8:53 pm 20:53 Partly Cloudy 75 23.9 63 17.2 66 66 SE 7 11 29.96 1015 10 16 0.00 0.00
9:53 pm 21:53 Mostly Clear 74 23.3 64 17.8 71 71 SE 8 13 29.98 1015 10 16 0.00 0.00
10:53 pm 22:53 Mostly Clear 72 22.2 65 18.3 79 79 SE 6 9 29.98 1015 10 16 0.00 0.00
11:53 pm 23:53 Mostly Clear 70 21.1 65 18.3 84 84 SE 7 11 29.99 1016 10 16 0.00 0.00

Powered by AerisWeather